����,���ϕ���(m/s),���ϕ���,�ő�u�ԕ���(m/s),�ő啗��������,�C��(��),���x(%),10���Ԉړ��ώZ�J��(mm),1���Ԉړ��ώZ�J��(mm),���J��(mm),�݌v�J��(mm),����(���ώZ)(MJ/m2),����(���ώZ)(min),���n�C��(hPa),�C�ʋC��(hPa)
2024-02-12T00:00:00+09:00,0.9,�k�k��,2.3,�k�k��,1.6,89.2,0,0,0,0,10.14,316,1008.6,1023.2
2024-02-12T00:01:00+09:00,0.9,�k,2.3,�k�k��,1.5,88.9,0,0,0,0,0,0,1008.6,1023.2
2024-02-12T00:02:00+09:00,0.9,�k,2.3,�k�k��,1.4,89.2,0,0,0,0,0,0,1008.7,1023.3
2024-02-12T00:03:00+09:00,0.8,�k,2.1,�k,1.5,89.6,0,0,0,0,0,0,1008.8,1023.4
2024-02-12T00:04:00+09:00,0.8,�k,2.1,�k,1.5,89.5,0,0,0,0,0,0,1008.7,1023.3
2024-02-12T00:05:00+09:00,0.8,�k�k��,2.1,�k,1.4,89.5,0,0,0,0,0,0,1008.7,1023.3
2024-02-12T00:06:00+09:00,0.8,�k�k��,2.1,�k,1.5,89.7,0,0,0,0,0,0,1008.7,1023.3
2024-02-12T00:07:00+09:00,0.9,�k�k��,2.1,�k,1.6,90,0,0,0,0,0,0,1008.7,1023.3
2024-02-12T00:08:00+09:00,0.9,�k,2.5,�k�k��,1.8,90.2,0,0,0,0,0,0,1008.7,1023.3
2024-02-12T00:09:00+09:00,0.9,�k,2.5,�k�k��,1.9,89.3,0,0,0,0,0,0,1008.8,1023.4
2024-02-12T00:10:00+09:00,1,�k�k��,2.5,�k�k��,2,89.1,0,0,0,0,0,0,1008.7,1023.3
2024-02-12T00:11:00+09:00,0.9,�k�k��,2.5,�k�k��,1.8,88.1,0,0,0,0,0,0,1008.7,1023.3
2024-02-12T00:12:00+09:00,0.9,�k�k��,2.5,�k�k��,1.7,88,0,0,0,0,0,0,1008.8,1023.4
2024-02-12T00:13:00+09:00,0.9,�k��,2.5,�k�k��,1.6,88,0,0,0,0,0,0,1008.8,1023.4
2024-02-12T00:14:00+09:00,0.8,�k�k��,2.5,�k�k��,1.7,88.7,0,0,0,0,0,0,1008.8,1023.4
2024-02-12T00:15:00+09:00,0.8,�k�k��,2.5,�k�k��,1.8,88.3,0,0,0,0,0,0,1008.8,1023.4
2024-02-12T00:16:00+09:00,0.9,�k,2.5,�k�k��,2,88.8,0,0,0,0,0,0,1008.8,1023.4
2024-02-12T00:17:00+09:00,1.1,�k,2.9,�k��,2.1,88.2,0,0,0,0,0,0,1008.8,1023.4
2024-02-12T00:18:00+09:00,1.1,�k,2.9,�k��,2.1,87.5,0,0,0,0,0,0,1008.9,1023.5
2024-02-12T00:19:00+09:00,1.1,�k,2.9,�k��,2.2,87.1,0,0,0,0,0,0,1008.9,1023.5
2024-02-12T00:20:00+09:00,1.1,�k,2.9,�k��,2.1,86.5,0,0,0,0,0,0,1008.9,1023.5
2024-02-12T00:21:00+09:00,1.2,�k,2.9,�k��,2,86.2,0,0,0,0,0,0,1009,1023.6
2024-02-12T00:22:00+09:00,1.2,�k,2.9,�k��,2.1,86.7,0,0,0,0,0,0,1009,1023.6
2024-02-12T00:23:00+09:00,1.3,�k,2.9,�k��,2,86.7,0,0,0,0,0,0,1009,1023.6
2024-02-12T00:24:00+09:00,1.4,�k�k��,2.9,�k��,1.8,86.4,0,0,0,0,0,0,1009.1,1023.7
2024-02-12T00:25:00+09:00,1.3,�k�k��,2.9,�k��,2,87.1,0,0,0,0,0,0,1009,1023.6
2024-02-12T00:26:00+09:00,1.2,�k�k��,2.9,�k��,1.9,86.9,0,0,0,0,0,0,1009,1023.6
2024-02-12T00:27:00+09:00,1.1,�k��,2.3,�k��,1.9,87.2,0,0,0,0,0,0,1009.1,1023.7
2024-02-12T00:28:00+09:00,0.9,�k��,2.3,�k��,2,87.3,0,0,0,0,0,0,1009,1023.6
2024-02-12T00:29:00+09:00,0.9,�k��,2.3,�k��,1.9,86.7,0,0,0,0,0,0,1009,1023.6
2024-02-12T00:30:00+09:00,0.8,���k��,2.3,�k��,1.8,86.6,0,0,0,0,0,0,1009.1,1023.7
2024-02-12T00:31:00+09:00,0.7,���k��,1.6,��,2,87,0,0,0,0,0,0,1009.1,1023.7
2024-02-12T00:32:00+09:00,0.7,�k��,1.4,���k��,2,87.1,0,0,0,0,0,0,1009.1,1023.7
2024-02-12T00:33:00+09:00,0.6,�k��,3,�k�k��,2.1,87.4,0,0,0,0,0,0,1009.1,1023.7
2024-02-12T00:34:00+09:00,0.6,�k��,3,�k�k��,2,87.7,0,0,0,0,0,0,1009.1,1023.7
2024-02-12T00:35:00+09:00,0.8,�k��,5.1,�k�k��,1.9,87.3,0,0,0,0,0,0,1009.1,1023.7
2024-02-12T00:36:00+09:00,0.9,�k��,5.1,�k�k��,2.1,87.4,0,0,0,0,0,0,1009.1,1023.7
2024-02-12T00:37:00+09:00,1,�k��,5.1,�k�k��,2.2,87,0,0,0,0,0,0,1009.1,1023.7
2024-02-12T00:38:00+09:00,1,�k��,5.1,�k�k��,2.4,86.2,0,0,0,0,0,0,1009.1,1023.7
2024-02-12T00:39:00+09:00,1.1,�k��,5.1,�k�k��,2.6,85.5,0,0,0,0,0,0,1009.2,1023.8
2024-02-12T00:40:00+09:00,1.2,�k�k��,5.1,�k�k��,2.6,84.9,0,0,0,0,0,0,1009.2,1023.8
2024-02-12T00:41:00+09:00,1.1,�k��,5.1,�k�k��,2.7,84.8,0,0,0,0,0,0,1009.2,1023.8
2024-02-12T00:42:00+09:00,1.1,�k��,5.1,�k�k��,2.8,84.7,0,0,0,0,0,0,1009.3,1023.9
2024-02-12T00:43:00+09:00,1.1,�k��,5.1,�k�k��,2.8,84.4,0,0,0,0,0,0,1009.3,1023.9
2024-02-12T00:44:00+09:00,1.2,�k��,5.1,�k�k��,2.7,83.7,0,0,0,0,0,0,1009.3,1023.9
2024-02-12T00:45:00+09:00,1.2,�k�k��,5.5,�k�k��,2.8,83.9,0,0,0,0,0,0,1009.3,1023.9
2024-02-12T00:46:00+09:00,1.2,�k�k��,5.5,�k�k��,3,84.1,0,0,0,0,0,0,1009.4,1024
2024-02-12T00:47:00+09:00,1.3,�k�k��,5.5,�k�k��,3,84.2,0,0,0,0,0,0,1009.4,1024
2024-02-12T00:48:00+09:00,1.4,�k,5.5,�k�k��,2.9,84.3,0,0,0,0,0,0,1009.5,1024.1
2024-02-12T00:49:00+09:00,1.4,�k,5.5,�k�k��,2.8,84.1,0,0,0,0,0,0,1009.4,1024
2024-02-12T00:50:00+09:00,1.5,�k,5.5,�k�k��,2.7,84.2,0,0,0,0,0,0,1009.4,1024
2024-02-12T00:51:00+09:00,1.7,�k,5.5,�k�k��,2.9,84.8,0,0,0,0,0,0,1009.4,1024
2024-02-12T00:52:00+09:00,1.7,�k,5.5,�k�k��,2.8,84.7,0,0,0,0,0,0,1009.5,1024.1
2024-02-12T00:53:00+09:00,1.8,�k,5.5,�k�k��,2.8,84.6,0,0,0,0,0,0,1009.5,1024.1
2024-02-12T00:54:00+09:00,1.9,�k,5.8,�k,2.8,85,0,0,0,0,0,0,1009.5,1024.1
2024-02-12T00:55:00+09:00,2.1,�k,6.7,�k�k��,3,85.6,0,0,0,0,0,0,1009.5,1024.1
2024-02-12T00:56:00+09:00,2.3,�k,6.7,�k�k��,3,85.8,0,0,0,0,0,0,1009.4,1024
2024-02-12T00:57:00+09:00,2.5,�k,6.7,�k�k��,2.8,85.6,0,0,0,0,0,0,1009.4,1024
2024-02-12T00:58:00+09:00,2.7,�k,6.7,�k�k��,2.8,86.6,0,0,0,0,0,0,1009.5,1024.1
2024-02-12T00:59:00+09:00,2.9,�k�k��,6.7,�k�k��,2.8,87.2,0,0,0,0,0,0,1009.5,1024.1
2024-02-12T01:00:00+09:00,3.1,�k�k��,6.7,�k�k��,2.8,87.8,0,0,0,0,0,0,1009.5,1024.1
2024-02-12T01:01:00+09:00,3.2,�k�k��,6.7,�k�k��,2.8,88,0,0,0,0,0,0,1009.5,1024.1
2024-02-12T01:02:00+09:00,3.2,�k�k��,6.7,�k�k��,2.7,88.6,0,0,0,0,0,0,1009.5,1024.1
2024-02-12T01:03:00+09:00,3.2,�k�k��,6.7,�k�k��,2.7,88.9,0,0,0,0,0,0,1009.5,1024.1
2024-02-12T01:04:00+09:00,3,�k�k��,6.7,�k�k��,2.7,88.4,0,0,0,0,0,0,1009.5,1024.1
2024-02-12T01:05:00+09:00,2.6,�k�k��,6.2,�k�k��,2.6,89,0,0,0,0,0,0,1009.5,1024.1
2024-02-12T01:06:00+09:00,2.3,�k,5.9,�k�k��,2.5,88.2,0,0,0,0,0,0,1009.5,1024.1
2024-02-12T01:07:00+09:00,2,�k,5.6,�k,2.5,88.8,0,0,0,0,0,0,1009.5,1024.1
2024-02-12T01:08:00+09:00,1.8,�k,5.4,�k�k��,2.6,88.9,0,0,0,0,0,0,1009.5,1024.1
2024-02-12T01:09:00+09:00,1.5,�k�k��,5.4,�k�k��,2.6,89,0,0,0,0,0,0,1009.5,1024.1
2024-02-12T01:10:00+09:00,1.3,���k��,4.4,�k�k��,2.5,87.9,0,0,0,0,0,0,1009.5,1024.1
2024-02-12T01:11:00+09:00,1.3,��,3.7,���쐼,2.6,87.6,0,0,0,0,0,0,1009.6,1024.2
2024-02-12T01:12:00+09:00,1.4,��,3.7,���쐼,2.5,86.5,0,0,0,0,0,0,1009.5,1024.1
2024-02-12T01:13:00+09:00,1.4,���쐼,3.7,���쐼,2.5,86.7,0,0,0,0,0,0,1009.5,1024.1
2024-02-12T01:14:00+09:00,1.5,���쐼,3.7,���쐼,2.4,86.8,0,0,0,0,0,0,1009.5,1024.1
2024-02-12T01:15:00+09:00,1.5,���쐼,3.7,���쐼,2.5,87,0,0,0,0,0,0,1009.5,1024.1
2024-02-12T01:16:00+09:00,1.6,���쐼,3.7,���쐼,2.4,86.8,0,0,0,0,0,0,1009.5,1024.1
2024-02-12T01:17:00+09:00,1.6,���쐼,3.7,���쐼,2.4,86.8,0,0,0,0,0,0,1009.5,1024.1
2024-02-12T01:18:00+09:00,1.7,���쐼,3.7,���쐼,2.4,86.8,0,0,0,0,0,0,1009.5,1024.1
2024-02-12T01:19:00+09:00,1.6,���쐼,3.7,���쐼,2.4,87,0,0,0,0,0,0,1009.4,1024
2024-02-12T01:20:00+09:00,1.6,���쐼,3.7,���쐼,2.6,88.4,0,0,0,0,0,0,1009.4,1024
2024-02-12T01:21:00+09:00,1.4,���쐼,3.6,��,2.6,88,0,0,0,0,0,0,1009.4,1024
2024-02-12T01:22:00+09:00,1.2,���쐼,2.8,���k��,2.6,87.8,0,0,0,0,0,0,1009.4,1024
2024-02-12T01:23:00+09:00,1.1,���쐼,2.6,�쐼,2.6,88.1,0,0,0,0,0,0,1009.3,1023.9
2024-02-12T01:24:00+09:00,1,���쐼,2.3,��쐼,2.5,88.1,0,0,0,0,0,0,1009.3,1023.9
2024-02-12T01:25:00+09:00,0.9,���쐼,2.3,��쐼,2.5,88.3,0,0,0,0,0,0,1009.2,1023.8
2024-02-12T01:26:00+09:00,0.8,��,2.3,��쐼,2.5,88.1,0,0,0,0,0,0,1009.2,1023.8
2024-02-12T01:27:00+09:00,0.7,��,2,��쐼,2.4,88.3,0,0,0,0,0,0,1009.2,1023.8
2024-02-12T01:28:00+09:00,0.6,���k��,1.7,��,2.4,88.8,0,0,0,0,0,0,1009.2,1023.8
2024-02-12T01:29:00+09:00,0.6,���k��,1.2,�k��,2.4,88.5,0,0,0,0,0,0,1009.2,1023.8
2024-02-12T01:30:00+09:00,0.7,���k��,1.5,�k��,2.4,88.4,0,0,0,0,0,0,1009.3,1023.9
2024-02-12T01:31:00+09:00,0.7,���k��,1.6,�k��,2.4,88.6,0,0,0,0,0,0,1009.3,1023.9
2024-02-12T01:32:00+09:00,0.8,�k��,1.6,�k��,2.3,88.6,0,0,0,0,0,0,1009.3,1023.9
2024-02-12T01:33:00+09:00,0.9,�k��,2.6,�k��,2.3,88.6,0,0,0,0,0,0,1009.4,1024
2024-02-12T01:34:00+09:00,1.1,�k��,2.6,�k��,2.3,89,0,0,0,0,0,0,1009.4,1024
2024-02-12T01:35:00+09:00,1.1,�k��,2.6,�k��,2.2,89.3,0,0,0,0,0,0,1009.4,1024
2024-02-12T01:36:00+09:00,1.1,�k��,2.6,�k��,2.1,89.6,0,0,0,0,0,0,1009.4,1024
2024-02-12T01:37:00+09:00,1.2,�k�k��,2.6,�k��,2,90,0,0,0,0,0,0,1009.4,1024
2024-02-12T01:38:00+09:00,1.1,�k�k��,2.6,�k��,1.9,90.4,0,0,0,0,0,0,1009.5,1024.1
2024-02-12T01:39:00+09:00,1,�k�k��,2.6,�k��,1.9,90.9,0,0,0,0,0,0,1009.4,1024
2024-02-12T01:40:00+09:00,0.9,�k��,2.6,�k��,1.8,91,0,0,0,0,0,0,1009.6,1024.2
2024-02-12T01:41:00+09:00,0.8,�k��,2.6,�k��,1.9,91.5,0,0,0,0,0,0,1009.5,1024.1
2024-02-12T01:42:00+09:00,0.7,�k�k��,2.6,�k��,1.8,91.6,0,0,0,0,0,0,1009.5,1024.1
2024-02-12T01:43:00+09:00,0.5,�k��,2.5,�k��,2,92.1,0,0,0,0,0,0,1009.5,1024.1
2024-02-12T01:44:00+09:00,0.4,���k��,2,�k��,1.9,92.2,0,0,0,0,0,0,1009.5,1024.1
2024-02-12T01:45:00+09:00,0.4,��,1.5,�k,2,91.8,0,0,0,0,0,0,1009.5,1024.1
2024-02-12T01:46:00+09:00,0.4,���쐼,1.5,�k,2,91.8,0,0,0,0,0,0,1009.5,1024.1
2024-02-12T01:47:00+09:00,0.4,�쐼,1.4,�쐼,1.9,91.5,0,0,0,0,0,0,1009.5,1024.1
2024-02-12T01:48:00+09:00,0.6,�쐼,1.7,�쐼,2,91.3,0,0,0,0,0,0,1009.5,1024.1
2024-02-12T01:49:00+09:00,0.7,�쐼,1.7,�쐼,1.9,90.9,0,0,0,0,0,0,1009.6,1024.2
2024-02-12T01:50:00+09:00,0.7,�쐼,1.7,�쐼,1.8,90.7,0,0,0,0,0,0,1009.6,1024.2
2024-02-12T01:51:00+09:00,0.8,�쐼,1.7,�쐼,1.8,91.1,0,0,0,0,0,0,1009.6,1024.2
2024-02-12T01:52:00+09:00,0.9,�쐼,1.7,�쐼,1.8,91.3,0,0,0,0,0,0,1009.6,1024.2
2024-02-12T01:53:00+09:00,0.9,���쐼,1.7,�쐼,1.8,91.2,0,0,0,0,0,0,1009.7,1024.3
2024-02-12T01:54:00+09:00,0.9,���쐼,1.7,�쐼,2,92,0,0,0,0,0,0,1009.7,1024.3
2024-02-12T01:55:00+09:00,0.9,���쐼,1.7,�쐼,2,91.8,0,0,0,0,0,0,1009.6,1024.2
2024-02-12T01:56:00+09:00,0.9,���쐼,1.7,�쐼,1.9,91.6,0,0,0,0,0,0,1009.8,1024.4
2024-02-12T01:57:00+09:00,0.9,��,1.7,�쐼,1.9,91.7,0,0,0,0,0,0,1009.7,1024.3
2024-02-12T01:58:00+09:00,0.8,��,1.6,��,1.8,91.9,0,0,0,0,0,0,1009.8,1024.4
2024-02-12T01:59:00+09:00,0.8,���k��,1.6,��,1.9,92.2,0,0,0,0,0,0,1009.8,1024.4
2024-02-12T02:00:00+09:00,0.8,���k��,1.6,��,1.9,92.4,0,0,0,0,0,0,1009.9,1024.5
2024-02-12T02:01:00+09:00,0.8,�k��,1.9,�k��,1.7,92.5,0,0,0,0,0,0,1009.8,1024.4
2024-02-12T02:02:00+09:00,0.9,�k��,1.9,�k��,1.6,92.4,0,0,0,0,0,0,1009.8,1024.4
2024-02-12T02:03:00+09:00,1,�k�k��,2,�k�k��,1.6,92.7,0,0,0,0,0,0,1009.9,1024.5
2024-02-12T02:04:00+09:00,1,�k,2.3,�k�k��,1.8,93.7,0,0,0,0,0,0,1009.8,1024.4
2024-02-12T02:05:00+09:00,1.1,�k,2.4,�k,1.7,94.1,0,0,0,0,0,0,1009.8,1024.4
2024-02-12T02:06:00+09:00,1.2,�k,2.4,�k,1.7,93.6,0,0,0,0,0,0,1009.9,1024.5
2024-02-12T02:07:00+09:00,1.3,�k�k��,2.4,�k,1.6,93.7,0,0,0,0,0,0,1009.9,1024.5
2024-02-12T02:08:00+09:00,1.4,�k�k��,2.6,�k��,1.6,93.9,0,0,0,0,0,0,1009.9,1024.5
2024-02-12T02:09:00+09:00,1.5,�k�k��,2.6,�k��,1.7,94.2,0,0,0,0,0,0,1009.9,1024.5
2024-02-12T02:10:00+09:00,1.6,�k��,2.6,�k��,1.7,94.8,0,0,0,0,0,0,1009.8,1024.4
2024-02-12T02:11:00+09:00,1.7,�k��,2.9,�k�k��,1.6,94.2,0,0,0,0,0,0,1009.8,1024.4
2024-02-12T02:12:00+09:00,1.8,�k��,2.9,�k�k��,1.6,94.3,0,0,0,0,0,0,1009.8,1024.4
2024-02-12T02:13:00+09:00,1.8,�k��,3.2,���k��,1.6,94.3,0,0,0,0,0,0,1009.8,1024.4
2024-02-12T02:14:00+09:00,1.9,�k��,3.2,���k��,1.6,94.7,0,0,0,0,0,0,1009.9,1024.5
2024-02-12T02:15:00+09:00,1.8,�k��,3.2,���k��,1.5,94.2,0,0,0,0,0,0,1009.9,1024.5
2024-02-12T02:16:00+09:00,1.8,�k��,3.2,���k��,1.4,94.2,0,0,0,0,0,0,1009.9,1024.6
2024-02-12T02:17:00+09:00,1.7,�k��,3.2,���k��,1.3,93.9,0,0,0,0,0,0,1009.9,1024.6
2024-02-12T02:18:00+09:00,1.7,�k��,3.2,���k��,1.1,93.9,0,0,0,0,0,0,1009.9,1024.6
2024-02-12T02:19:00+09:00,1.6,�k��,3.2,���k��,1.1,94.2,0,0,0,0,0,0,1010,1024.7
2024-02-12T02:20:00+09:00,1.4,�k��,3.2,���k��,1.2,94.6,0,0,0,0,0,0,1009.9,1024.6
2024-02-12T02:21:00+09:00,1.3,�k�k��,3.2,���k��,1.3,95.1,0,0,0,0,0,0,1010,1024.7
2024-02-12T02:22:00+09:00,1.3,�k�k��,3.2,���k��,1.3,95.3,0,0,0,0,0,0,1010,1024.7
2024-02-12T02:23:00+09:00,1.2,�k,3.2,�k��,1.3,95.2,0,0,0,0,0,0,1010,1024.7
2024-02-12T02:24:00+09:00,1.2,�k,3.2,�k��,1.3,95,0,0,0,0,0,0,1010,1024.7
2024-02-12T02:25:00+09:00,1.3,�k,5.1,�k�k��,1.4,95.3,0,0,0,0,0,0,1010,1024.7
2024-02-12T02:26:00+09:00,1.5,�k�k��,5.7,�k�k��,1.4,95.4,0,0,0,0,0,0,1010,1024.7
2024-02-12T02:27:00+09:00,1.6,�k,5.7,�k�k��,1.5,95.4,0,0,0,0,0,0,1010,1024.6
2024-02-12T02:28:00+09:00,1.7,�k,5.7,�k�k��,1.8,95.3,0,0,0,0,0,0,1010,1024.6
2024-02-12T02:29:00+09:00,1.7,�k,5.7,�k�k��,1.7,94.6,0,0,0,0,0,0,1010,1024.6
2024-02-12T02:30:00+09:00,1.7,�k,5.7,�k�k��,1.7,93.8,0,0,0,0,0,0,1010.1,1024.7
2024-02-12T02:31:00+09:00,1.7,�k,5.7,�k�k��,1.5,93.4,0,0,0,0,0,0,1010,1024.6
2024-02-12T02:32:00+09:00,1.7,�k�k��,5.7,�k�k��,1.5,93,0,0,0,0,0,0,1010.1,1024.7
2024-02-12T02:33:00+09:00,1.7,�k�k��,5.7,�k�k��,1.4,92.9,0,0,0,0,0,0,1010.1,1024.8
2024-02-12T02:34:00+09:00,1.7,�k�k��,5.7,�k�k��,1.4,93,0,0,0,0,0,0,1010.1,1024.8
2024-02-12T02:35:00+09:00,1.5,�k�k��,5.7,�k�k��,1.5,93.5,0,0,0,0,0,0,1010.1,1024.7
2024-02-12T02:36:00+09:00,1.3,�k�k��,3.3,�k��,1.4,93.4,0,0,0,0,0,0,1010.1,1024.8
2024-02-12T02:37:00+09:00,1.2,�k�k��,3.3,�k��,1.5,93.2,0,0,0,0,0,0,1010.1,1024.7
2024-02-12T02:38:00+09:00,1.1,�k�k��,3.3,�k��,1.5,93.5,0,0,0,0,0,0,1010.1,1024.7
2024-02-12T02:39:00+09:00,1.2,�k�k��,3.3,�k��,1.5,93.4,0,0,0,0,0,0,1010.2,1024.8
2024-02-12T02:40:00+09:00,1.2,�k�k��,3.3,�k��,1.6,93.5,0,0,0,0,0,0,1010.1,1024.7
2024-02-12T02:41:00+09:00,1.2,�k�k��,3.3,�k��,1.6,93.3,0,0,0,0,0,0,1010.1,1024.7
2024-02-12T02:42:00+09:00,1.1,�k�k��,3.3,�k��,1.6,92.7,0,0,0,0,0,0,1010.1,1024.7
2024-02-12T02:43:00+09:00,1,�k�k��,3,�k�k��,1.5,92.4,0,0,0,0,0,0,1010.2,1024.8
2024-02-12T02:44:00+09:00,0.9,�k�k��,3,�k�k��,1.5,92.2,0,0,0,0,0,0,1010.1,1024.7
2024-02-12T02:45:00+09:00,0.8,�k�k��,3,�k�k��,1.5,92.3,0,0,0,0,0,0,1010.1,1024.7
2024-02-12T02:46:00+09:00,0.8,�k�k��,2.6,�k�k��,1.4,92,0,0,0,0,0,0,1010.1,1024.8
2024-02-12T02:47:00+09:00,0.7,�k�k��,2.1,�k,1.2,91.9,0,0,0,0,0,0,1010.2,1024.9
2024-02-12T02:48:00+09:00,0.7,�쐼,2.1,�k,1.3,92.5,0,0,0,0,0,0,1010.2,1024.9
2024-02-12T02:49:00+09:00,0.6,��쐼,1.4,��,1.2,93.2,0,0,0,0,0,0,1010.2,1024.9
2024-02-12T02:50:00+09:00,0.6,��쐼,1.4,��,1.2,92.7,0,0,0,0,0,0,1010.3,1025
2024-02-12T02:51:00+09:00,0.5,��쐼,1.4,��,1.3,93.1,0,0,0,0,0,0,1010.2,1024.9
2024-02-12T02:52:00+09:00,0.6,��쐼,1.4,��,1.4,93.6,0,0,0,0,0,0,1010.3,1025
2024-02-12T02:53:00+09:00,0.6,��쐼,1.4,��,1.3,93.3,0,0,0,0,0,0,1010.3,1025
2024-02-12T02:54:00+09:00,0.7,��쐼,1.4,��,1.3,93.3,0,0,0,0,0,0,1010.3,1025
2024-02-12T02:55:00+09:00,0.7,��쐼,1.4,��,1.4,93.2,0,0,0,0,0,0,1010.3,1025
2024-02-12T02:56:00+09:00,0.6,��,1.2,��쐼,1.3,93.2,0,0,0,0,0,0,1010.3,1025
2024-02-12T02:57:00+09:00,0.7,��,1.3,���k��,1.4,93.2,0,0,0,0,0,0,1010.3,1025
2024-02-12T02:58:00+09:00,0.7,��쓌,1.5,�k��,1.4,93.1,0,0,0,0,0,0,1010.3,1025
2024-02-12T02:59:00+09:00,0.8,�쓌,1.7,�k��,1.6,93.5,0,0,0,0,0,0,1010.3,1024.9
2024-02-12T03:00:00+09:00,0.9,���쓌,2.3,��,1.8,94,0,0,0,0,0,0,1010.3,1024.9
2024-02-12T03:01:00+09:00,1,��,2.3,��,1.8,93.2,0,0,0,0,0,0,1010.3,1024.9
2024-02-12T03:02:00+09:00,1.1,��,2.9,���k��,1.7,92.6,0,0,0,0,0,0,1010.4,1025
2024-02-12T03:03:00+09:00,1.2,���k��,2.9,���k��,1.7,92.5,0,0,0,0,0,0,1010.3,1024.9
2024-02-12T03:04:00+09:00,1.4,���k��,3.6,�k��,1.8,92.6,0,0,0,0,0,0,1010.3,1024.9
2024-02-12T03:05:00+09:00,1.5,���k��,3.6,�k��,1.8,92.4,0,0,0,0,0,0,1010.3,1024.9
2024-02-12T03:06:00+09:00,1.7,�k��,3.6,�k��,1.8,92,0,0,0,0,0,0,1010.3,1024.9
2024-02-12T03:07:00+09:00,1.8,�k��,3.6,�k��,1.9,92.5,0,0,0,0,0,0,1010.4,1025
2024-02-12T03:08:00+09:00,1.9,�k��,3.6,�k��,1.8,91.8,0,0,0,0,0,0,1010.4,1025
2024-02-12T03:09:00+09:00,2.1,�k��,3.6,�k��,1.8,91.6,0,0,0,0,0,0,1010.3,1024.9
2024-02-12T03:10:00+09:00,2.2,�k��,3.6,�k��,1.8,91.9,0,0,0,0,0,0,1010.3,1024.9
2024-02-12T03:11:00+09:00,2.3,�k��,3.6,�k��,1.8,91.9,0,0,0,0,0,0,1010.3,1024.9
2024-02-12T03:12:00+09:00,2.4,�k��,3.6,�k��,2,92.1,0,0,0,0,0,0,1010.2,1024.8
2024-02-12T03:13:00+09:00,2.4,�k��,3.6,�k��,2,92.2,0,0,0,0,0,0,1010.2,1024.8
2024-02-12T03:14:00+09:00,2.2,�k��,3.6,�k�k��,2,91.8,0,0,0,0,0,0,1010.1,1024.7
2024-02-12T03:15:00+09:00,2.3,�k��,3.6,�k�k��,2,91.8,0,0,0,0,0,0,1010.1,1024.7
2024-02-12T03:16:00+09:00,2.2,�k��,3.6,�k�k��,2,91.8,0,0,0,0,0,0,1010.2,1024.8
2024-02-12T03:17:00+09:00,2,�k��,3.6,�k�k��,1.9,91.7,0,0,0,0,0,0,1010.2,1024.8
2024-02-12T03:18:00+09:00,1.8,�k�k��,3.6,�k�k��,1.8,91.5,0,0,0,0,0,0,1010.3,1024.9
2024-02-12T03:19:00+09:00,1.6,�k�k��,3.6,�k�k��,1.7,92,0,0,0,0,0,0,1010.2,1024.8
2024-02-12T03:20:00+09:00,1.4,�k��,3.6,�k�k��,1.5,91.5,0,0,0,0,0,0,1010.1,1024.7
2024-02-12T03:21:00+09:00,1.1,�k�k��,3.3,�k��,1.5,91.7,0,0,0,0,0,0,1010,1024.6
2024-02-12T03:22:00+09:00,0.9,�k�k��,3.3,�k��,1.5,92.3,0,0,0,0,0,0,1010.1,1024.7
2024-02-12T03:23:00+09:00,0.7,�k,2.7,�k��,1.6,93.2,0,0,0,0,0,0,1010,1024.6
2024-02-12T03:24:00+09:00,0.5,�k,2.7,�k��,1.5,93.2,0,0,0,0,0,0,1010,1024.6
2024-02-12T03:25:00+09:00,0.4,�k�k��,2,�k��,1.5,93.7,0,0,0,0,0,0,1010,1024.6
2024-02-12T03:26:00+09:00,0.3,�k�k��,1.5,���쐼,1.4,93.7,0,0,0,0,0,0,1010,1024.7
2024-02-12T03:27:00+09:00,0.3,�k�k��,1.5,���쐼,1.4,93.7,0,0,0,0,0,0,1010,1024.7
2024-02-12T03:28:00+09:00,0.3,�k�k��,1.5,���쐼,1.4,94,0,0,0,0,0,0,1010.1,1024.8
2024-02-12T03:29:00+09:00,0.3,�k�k��,0.7,���k��,1.3,94,0,0,0,0,0,0,1010.1,1024.8
2024-02-12T03:30:00+09:00,0.3,�k��,0.8,���쐼,1.3,93.9,0,0,0,0,0,0,1010.1,1024.8
2024-02-12T03:31:00+09:00,0.3,���k��,0.8,���쐼,1.3,94.2,0,0,0,0,0,0,1010.1,1024.8
2024-02-12T03:32:00+09:00,0.4,���k��,0.8,���쐼,1.3,94.5,0,0,0,0,0,0,1010.1,1024.8
2024-02-12T03:33:00+09:00,0.4,�k��,0.8,���쐼,1.3,94.3,0,0,0,0,0,0,1010.1,1024.8
2024-02-12T03:34:00+09:00,0.4,�k��,0.8,���쐼,1.4,94.6,0,0,0,0,0,0,1010.2,1024.9
2024-02-12T03:35:00+09:00,0.5,���k��,1.5,���k��,1.5,95.1,0,0,0,0,0,0,1010.2,1024.8
2024-02-12T03:36:00+09:00,0.5,���k��,1.5,���k��,1.5,94.6,0,0,0,0,0,0,1010.2,1024.8
2024-02-12T03:37:00+09:00,0.5,���k��,1.5,���k��,1.4,94.5,0,0,0,0,0,0,1010.2,1024.9
2024-02-12T03:38:00+09:00,0.6,���k��,1.5,���k��,1.4,94.3,0,0,0,0,0,0,1010.3,1025
2024-02-12T03:39:00+09:00,0.6,�k��,1.5,���k��,1.3,94.1,0,0,0,0,0,0,1010.3,1025
2024-02-12T03:40:00+09:00,0.7,�k��,1.7,���k��,1.3,94,0,0,0,0,0,0,1010.3,1025
2024-02-12T03:41:00+09:00,0.7,�k��,2.1,��,1.3,94.2,0,0,0,0,0,0,1010.3,1025
2024-02-12T03:42:00+09:00,0.7,�k��,2.1,��,1.1,93.9,0,0,0,0,0,0,1010.3,1025
2024-02-12T03:43:00+09:00,0.7,���k��,2.1,��,1,93.6,0,0,0,0,0,0,1010.3,1025
2024-02-12T03:44:00+09:00,0.7,���k��,2.1,��,0.9,93.9,0,0,0,0,0,0,1010.3,1025
2024-02-12T03:45:00+09:00,0.6,�k��,2.1,��,1,94.4,0,0,0,0,0,0,1010.3,1025
2024-02-12T03:46:00+09:00,0.5,�k��,2.1,��,1,94.9,0,0,0,0,0,0,1010.3,1025
2024-02-12T03:47:00+09:00,0.5,�k�k��,2.1,��,1,95,0,0,0,0,0,0,1010.3,1025
2024-02-12T03:48:00+09:00,0.5,�k,2.1,��,1,95.1,0,0,0,0,0,0,1010.3,1025
2024-02-12T03:49:00+09:00,0.5,�k�k��,2.1,��,1.4,95.6,0,0,0,0,0,0,1010.3,1025
2024-02-12T03:50:00+09:00,0.4,�k��,2.1,��,1.4,95.7,0,0,0,0,0,0,1010.3,1025
2024-02-12T03:51:00+09:00,0.4,�k��,1.3,�쐼,1.2,95.3,0,0,0,0,0,0,1010.3,1025
2024-02-12T03:52:00+09:00,0.3,���k��,1.3,�쐼,1,94.5,0,0,0,0,0,0,1010.2,1024.9
2024-02-12T03:53:00+09:00,0.3,���k��,1.3,�쐼,1,94.5,0,0,0,0,0,0,1010.2,1024.9
2024-02-12T03:54:00+09:00,0.3,��,1.3,�쐼,0.9,94.6,0,0,0,0,0,0,1010.2,1024.9
2024-02-12T03:55:00+09:00,0.3,�쓌,1.3,�쐼,0.9,94.4,0,0,0,0,0,0,1010.2,1024.9
2024-02-12T03:56:00+09:00,0.4,��쓌,1.3,�쐼,0.9,95,0,0,0,0,0,0,1010.3,1025
2024-02-12T03:57:00+09:00,0.4,��,1.3,�쐼,0.9,94.9,0,0,0,0,0,0,1010.3,1025
2024-02-12T03:58:00+09:00,0.4,��쐼,1.3,�쐼,0.9,95.1,0,0,0,0,0,0,1010.5,1025.2
2024-02-12T03:59:00+09:00,,,,,,,,,,,,,,
2024-02-12T04:00:00+09:00,0.5,��쐼,1.5,��쐼,0.8,94.9,0,0,0,0,0,0,1010.5,1025.2
2024-02-12T04:01:00+09:00,0.7,��쐼,1.5,��쐼,0.9,95.4,0,0,0,0,0,0,1010.5,1025.2
2024-02-12T04:02:00+09:00,0.7,��쐼,1.5,��쐼,0.8,95.4,0,0,0,0,0,0,1010.5,1025.2
2024-02-12T04:03:00+09:00,0.8,��쐼,1.5,��쐼,0.8,95.3,0,0,0,0,0,0,1010.6,1025.3
2024-02-12T04:04:00+09:00,0.8,��쐼,1.5,��쐼,0.9,95.4,0,0,0,0,0,0,1010.6,1025.3
2024-02-12T04:05:00+09:00,0.8,��,1.5,��쐼,0.8,95.4,0,0,0,0,0,0,1010.7,1025.4
2024-02-12T04:06:00+09:00,0.8,��,1.5,��쐼,0.8,95.4,0,0,0,0,0,0,1010.7,1025.4
2024-02-12T04:07:00+09:00,0.7,��,1.5,��쐼,0.8,95.5,0,0,0,0,0,0,1010.6,1025.3
2024-02-12T04:08:00+09:00,0.7,��쓌,1.5,��쐼,0.7,95.5,0,0,0,0,0,0,1010.7,1025.4
2024-02-12T04:09:00+09:00,0.7,��쓌,1.6,��,0.7,95.4,0,0,0,0,0,0,1010.7,1025.4
2024-02-12T04:10:00+09:00,0.7,��쓌,1.8,��,0.8,95.5,0,0,0,0,0,0,1010.8,1025.5
2024-02-12T04:11:00+09:00,0.7,��쓌,1.8,��,0.7,95.6,0,0,0,0,0,0,1010.8,1025.5
2024-02-12T04:12:00+09:00,0.7,��쓌,1.8,��,0.7,95.4,0,0,0,0,0,0,1010.8,1025.5
2024-02-12T04:13:00+09:00,0.7,��쓌,1.8,��,0.7,95.4,0,0,0,0,0,0,1010.8,1025.5
2024-02-12T04:14:00+09:00,0.8,��,1.8,��,0.8,95.6,0,0,0,0,0,0,1010.8,1025.5
2024-02-12T04:15:00+09:00,0.9,��,2.2,��,0.7,95.4,0,0,0,0,0,0,1010.8,1025.5
2024-02-12T04:16:00+09:00,0.9,��,2.2,��,0.8,95.3,0,0,0,0,0,0,1010.8,1025.5
2024-02-12T04:17:00+09:00,0.9,��쐼,2.2,��,0.9,95.5,0,0,0,0,0,0,1010.9,1025.6
2024-02-12T04:18:00+09:00,0.9,��쐼,2.2,��,0.9,95.4,0,0,0,0,0,0,1010.8,1025.5
2024-02-12T04:19:00+09:00,0.9,��쐼,2.2,��,1,95.3,0,0,0,0,0,0,1010.9,1025.6
2024-02-12T04:20:00+09:00,0.9,��쐼,2.2,��,1,95.2,0,0,0,0,0,0,1010.9,1025.6
2024-02-12T04:21:00+09:00,0.9,��쐼,2.4,��쓌,0.9,94.6,0,0,0,0,0,0,1010.9,1025.6
2024-02-12T04:22:00+09:00,0.9,��쐼,2.4,��쓌,0.8,94.1,0,0,0,0,0,0,1011,1025.7
2024-02-12T04:23:00+09:00,0.9,��쐼,2.4,��쓌,0.8,94.3,0,0,0,0,0,0,1010.9,1025.6
2024-02-12T04:24:00+09:00,0.9,��쐼,2.4,��쓌,0.8,94.7,0,0,0,0,0,0,1010.9,1025.6
2024-02-12T04:25:00+09:00,0.9,��쐼,2.4,��쓌,0.7,94.3,0,0,0,0,0,0,1010.9,1025.6
2024-02-12T04:26:00+09:00,1,��쐼,2.4,��쓌,0.6,94.1,0,0,0,0,0,0,1010.9,1025.6
2024-02-12T04:27:00+09:00,1.2,��쐼,2.4,��쓌,0.5,94.3,0,0,0,0,0,0,1011,1025.7
2024-02-12T04:28:00+09:00,1.3,��쐼,2.4,��쓌,0.5,94.6,0,0,0,0,0,0,1011,1025.7
2024-02-12T04:29:00+09:00,1.4,��쐼,2.4,��쓌,0.5,94.8,0,0,0,0,0,0,1010.9,1025.6
2024-02-12T04:30:00+09:00,1.4,��쐼,2.4,��쓌,0.5,94.9,0,0,0,0,0,0,1010.9,1025.6
2024-02-12T04:31:00+09:00,1.3,��쐼,2.4,�쐼,0.5,94.9,0,0,0,0,0,0,1011,1025.7
2024-02-12T04:32:00+09:00,1.4,��쐼,2.4,�쐼,0.5,95,0,0,0,0,0,0,1011.1,1025.8
2024-02-12T04:33:00+09:00,1.5,��쐼,2.4,�쐼,0.7,95.5,0,0,0,0,0,0,1011,1025.7
2024-02-12T04:34:00+09:00,1.5,��쐼,2.4,�쐼,0.7,95.4,0,0,0,0,0,0,1011,1025.7
2024-02-12T04:35:00+09:00,1.5,��쐼,2.4,�쐼,0.6,94.8,0,0,0,0,0,0,1011,1025.7
2024-02-12T04:36:00+09:00,1.5,��쐼,2.3,��쐼,0.7,95.1,0,0,0,0,0,0,1011,1025.7
2024-02-12T04:37:00+09:00,1.5,��쐼,2.3,��쐼,0.6,94.7,0,0,0,0,0,0,1011,1025.7
2024-02-12T04:38:00+09:00,1.6,��쐼,2.4,��쐼,0.6,94.7,0,0,0,0,0,0,1011.1,1025.8
2024-02-12T04:39:00+09:00,1.5,��쐼,2.4,��쐼,0.6,94.6,0,0,0,0,0,0,1011.2,1025.9
2024-02-12T04:40:00+09:00,1.4,��쐼,2.4,��쐼,0.6,94.7,0,0,0,0,0,0,1011.2,1025.9
2024-02-12T04:41:00+09:00,1.4,��쐼,2.4,��쐼,0.6,94.6,0,0,0,0,0,0,1011.2,1025.9
2024-02-12T04:42:00+09:00,1.3,��쐼,2.4,��쐼,0.7,94.6,0,0,0,0,0,0,1011.2,1025.9
2024-02-12T04:43:00+09:00,1.1,��쐼,2.4,��쐼,0.6,94.6,0,0,0,0,0,0,1011.3,1026
2024-02-12T04:44:00+09:00,1,��쐼,2.4,��쐼,0.7,94.8,0,0,0,0,0,0,1011.3,1026
2024-02-12T04:45:00+09:00,0.9,��쐼,2.4,��쐼,0.7,94.6,0,0,0,0,0,0,1011.3,1026
2024-02-12T04:46:00+09:00,0.9,��쐼,2.4,��쐼,0.6,94.8,0,0,0,0,0,0,1011.3,1026
2024-02-12T04:47:00+09:00,0.9,��쐼,2.4,��쐼,0.6,94.5,0,0,0,0,0,0,1011.4,1026.1
2024-02-12T04:48:00+09:00,0.8,��쐼,2.4,��쐼,0.6,94.8,0,0,0,0,0,0,1011.4,1026.1
2024-02-12T04:49:00+09:00,0.9,��쐼,2.5,��쐼,0.7,94.7,0,0,0,0,0,0,1011.5,1026.2
2024-02-12T04:50:00+09:00,1.1,��쐼,2.9,��쐼,0.6,94.3,0,0,0,0,0,0,1011.6,1026.3
2024-02-12T04:51:00+09:00,1.2,��쐼,2.9,��쐼,0.6,94,0,0,0,0,0,0,1011.6,1026.3
2024-02-12T04:52:00+09:00,1.3,��쐼,2.9,��쐼,0.5,94.1,0,0,0,0,0,0,1011.7,1026.4
2024-02-12T04:53:00+09:00,1.3,��쐼,2.9,��쐼,0.9,94.7,0,0,0,0,0,0,1011.7,1026.4
2024-02-12T04:54:00+09:00,1.3,��쐼,2.9,��쐼,0.8,94.8,0,0,0,0,0,0,1011.7,1026.4
2024-02-12T04:55:00+09:00,1.4,��쐼,2.9,��쐼,0.8,94.3,0,0,0,0,0,0,1011.8,1026.5
2024-02-12T04:56:00+09:00,1.2,��쐼,2.9,��쐼,1.1,94.8,0,0,0,0,0,0,1011.8,1026.5
2024-02-12T04:57:00+09:00,1.1,�쐼,2.9,��쐼,1,94.6,0,0,0,0,0,0,1011.9,1026.6
2024-02-12T04:58:00+09:00,1.1,�쐼,2.9,��쐼,0.6,93,0,0,0,0,0,0,1011.9,1026.6
2024-02-12T04:59:00+09:00,1.1,�쐼,2.9,��쐼,0.7,93.6,0,0,0,0,0,0,1011.8,1026.5
2024-02-12T05:00:00+09:00,0.9,�쐼,2.3,�쐼,0.8,94.4,0,0,0,0,0,0,1011.8,1026.5
2024-02-12T05:01:00+09:00,1,�쐼,2.3,�쐼,1,94.5,0,0,0,0,0,0,1011.8,1026.5
2024-02-12T05:02:00+09:00,1,���쐼,2.5,�k��,1.4,95,0,0,0,0,0,0,1011.8,1026.5
2024-02-12T05:03:00+09:00,1.2,���쐼,4.1,��,1.3,94.3,0,0,0,0,0,0,1011.9,1026.6
2024-02-12T05:04:00+09:00,1.3,���쐼,4.1,��,1.1,92.7,0,0,0,0,0,0,1011.9,1026.6
2024-02-12T05:05:00+09:00,1.3,���쐼,4.1,��,1,92.8,0,0,0,0,0,0,1011.9,1026.6